DateTimeUTC,F1_A11,F1_S11,BsB_S11,BsG_S11,BsR_S11,BbsB_S11,BbsG_S11,BbsR_S11,BaB_A11,BaG_A11,BaR_A11,Tu_S11,T_S11,Uu_S11,U_S11,P_S11,T1_A11
2021-03-11T07:00:00Z,00000200,21000000,,,,,,,0000.05,-000.01,-000.06,16.5,24.4,,00.0,0638.3,30.9
2021-03-11T07:01:00Z,00000200,21000000,,,,,,,-000.15,0000.11,0000.14,16.5,24.4,,00.0,0638.3,30.9
2021-03-11T07:02:00Z,00000200,21000000,,,,,,,0000.29,-000.53,0000.03,16.5,24.4,,00.0,0638.3,30.9
2021-03-11T07:03:00Z,00000200,61000000,,,,,,,0000.49,0000.74,0000.14,16.6,24.4,,00.0,0638.3,30.9
2021-03-11T07:04:00Z,00000200,41000000,0003.51,0001.99,0001.01,0000.42,0000.71,0000.33,0000.80,0001.10,0000.77,17.0,24.3,,00.0,0639.2,30.9
2021-03-11T07:05:00Z,00000200,01000000,0004.00,0002.51,0001.44,0000.74,0000.30,0000.21,0001.15,0000.99,0000.84,17.1,24.3,,00.0,0639.3,30.9
2021-03-11T07:06:00Z,00000200,01000000,0003.59,0002.03,0001.56,0001.10,0000.42,0000.52,0001.10,0001.11,0000.53,17.1,24.3,,00.0,0639.3,31.0
2021-03-11T07:07:00Z,00000200,01000000,0003.01,0002.24,0001.01,0000.31,0000.49,0000.18,0001.49,0000.56,0000.79,17.1,24.3,,00.0,0639.2,30.9
2021-03-11T07:08:00Z,00000200,01000000,0003.19,0002.16,0000.87,0000.23,0000.40,0000.28,0001.08,0001.40,0001.19,17.0,24.3,,00.0,0639.2,30.9
2021-03-11T07:09:00Z,00000200,01000000,0002.53,0001.74,0000.97,0000.40,0000.33,0000.31,0001.19,0001.16,0000.42,17.0,24.2,,00.0,0639.2,30.9
2021-03-11T07:10:00Z,00000200,01000000,0003.06,0002.28,0001.04,0000.33,0000.55,0000.53,0000.89,0000.81,0000.44,16.9,24.2,,00.0,0639.2,30.9
2021-03-11T07:11:00Z,00000200,01000000,0002.65,0001.79,0001.13,0000.54,0000.44,0000.13,0001.13,0000.82,0001.10,16.8,24.1,,00.0,0639.2,30.9
2021-03-11T07:12:00Z,00000200,01000000,0002.91,0001.45,0001.01,0000.87,0000.39,0000.29,0001.19,0000.82,0000.63,16.8,24.1,,00.0,0639.2,30.9
2021-03-11T07:13:00Z,00000200,01000000,0003.49,0001.77,0000.63,0000.52,0000.63,0000.10,0000.91,0001.03,0000.95,16.7,24.1,,00.0,0639.2,30.9
2021-03-11T07:14:00Z,00000200,01000000,0003.39,0001.72,0000.87,0000.53,0000.47,0000.51,0000.97,0000.98,0000.75,16.8,24.0,,00.0,0639.2,30.9
2021-03-11T07:15:00Z,00000200,01000000,0002.18,0001.48,0000.59,0000.70,0000.38,0000.17,0001.04,0000.53,-000.04,16.9,24.1,,00.0,0639.2,30.9
2021-03-11T07:16:00Z,00000200,01000000,0002.54,0001.71,0000.88,0000.48,0000.16,0000.34,0000.42,0000.91,0001.14,16.9,24.1,,00.0,0639.2,30.9
2021-03-11T07:17:00Z,00000200,01000000,0002.31,0001.62,0000.99,-000.08,0000.52,0000.08,0001.00,0001.00,0000.22,17.0,24.1,,00.0,0639.2,30.9
2021-03-11T07:18:00Z,00000200,01000000,0002.34,0001.62,0000.47,0000.63,0000.38,-000.02,0000.92,0000.51,0001.05,17.0,24.2,,00.0,0639.2,30.9
2021-03-11T07:19:00Z,00000200,01000000,0003.36,0001.49,0000.70,0000.73,0000.39,0000.26,0001.21,0001.16,0000.36,17.1,24.2,,00.0,0639.2,30.9
2021-03-11T07:20:00Z,00000200,01000000,0002.29,0001.75,0000.69,-000.06,0000.44,0000.19,0000.91,0001.12,0000.87,17.2,24.2,,00.0,0639.2,30.9
2021-03-11T07:21:00Z,00000200,01000000,0002.27,0001.49,0001.03,0000.56,0000.30,0000.10,0000.95,0000.48,0000.33,17.2,24.2,,00.0,0639.2,30.9
2021-03-11T07:22:00Z,00000200,01000000,0001.77,0001.47,0000.68,0000.29,0000.48,0000.13,0000.83,0000.83,0000.67,17.2,24.2,,00.0,0639.1,30.9
2021-03-11T07:23:00Z,00000200,01000000,0002.27,0001.25,0000.60,0000.18,0000.25,0000.15,0000.77,0000.74,0000.58,17.1,24.2,,00.0,0639.1,30.9
2021-03-11T07:24:00Z,00000200,01000000,0002.73,0001.62,0000.88,0000.92,0000.36,0000.21,0000.91,0000.96,0000.21,17.0,24.2,,00.0,0639.1,30.9
2021-03-11T07:25:00Z,00000200,01000000,0002.42,0001.48,0000.79,0000.07,0000.26,0000.16,0000.93,0000.70,0000.64,17.0,24.1,,00.0,0639.1,30.9
2021-03-11T07:26:00Z,00000200,01000000,0002.41,0001.33,0000.67,0000.59,0000.41,0000.35,0001.02,0000.50,0000.79,16.9,24.1,,00.0,0639.1,30.9
2021-03-11T07:27:00Z,00000200,01000000,0002.69,0001.57,0000.71,0000.24,0000.36,0000.30,0000.64,0000.46,0000.51,16.8,24.1,,00.0,0639.1,30.9
2021-03-11T07:28:00Z,00000200,01000000,0002.04,0001.43,0000.60,0000.20,0000.43,0000.24,0000.84,0000.78,0000.25,16.8,24.0,,00.0,0639.1,30.9
2021-03-11T07:29:00Z,00000200,01000000,0002.58,0001.49,0000.71,0000.24,0000.28,0000.14,0000.88,0001.03,0000.88,16.8,24.0,,00.0,0639.1,30.9
2021-03-11T07:30:00Z,00000200,01000000,0002.42,0001.69,0000.72,0000.56,0000.23,0000.25,0000.91,0000.50,0000.57,16.9,24.0,,00.0,0639.1,30.9
2021-03-11T07:31:00Z,00000200,01000000,0002.43,0001.57,0000.97,0000.00,0000.45,0000.26,0001.29,0001.58,0000.74,16.9,24.1,,00.0,0639.1,30.9
2021-03-11T07:32:00Z,00000200,01000000,0002.78,0001.66,0000.78,0000.16,0000.44,-000.07,0000.99,0000.92,0000.71,17.0,24.1,,00.0,0639.1,30.9
2021-03-11T07:33:00Z,00000200,01000000,0003.11,0001.70,0000.71,0000.35,0000.53,0000.30,0001.22,0000.68,0000.75,17.1,24.1,,00.0,0639.1,30.9
2021-03-11T07:34:00Z,00000200,01000000,0002.75,0001.92,0000.75,0000.70,0000.37,0000.36,0000.76,0000.49,0000.70,17.1,24.1,,00.0,0639.1,30.9
2021-03-11T07:35:00Z,00000200,01000000,0002.47,0001.60,0000.79,0000.72,0000.46,0000.40,0000.80,0001.27,0000.46,17.2,24.2,,00.0,0639.1,30.9
2021-03-11T07:36:00Z,00000200,01000000,0002.83,0001.80,0000.92,0000.34,0000.29,0000.21,0001.18,0001.06,0000.97,17.3,24.2,,00.0,0639.1,30.9
2021-03-11T07:37:00Z,00000200,01000000,0002.89,0002.02,0001.12,0000.12,0000.48,0000.27,0001.16,0000.95,0000.68,17.3,24.2,,00.0,0639.1,31.0
2021-03-11T07:38:00Z,00000200,01000000,0002.52,0001.72,0000.99,0000.26,0000.56,0000.15,0001.10,0000.98,0000.66,17.3,24.3,,00.0,0639.1,31.0
2021-03-11T07:39:00Z,00000200,01000000,0002.09,0001.51,0000.71,0000.45,0000.52,0000.12,0000.80,0000.75,0000.66,17.3,24.2,,00.0,0639.1,30.9
2021-03-11T07:40:00Z,00000200,01000000,0002.41,0001.51,0000.73,0000.22,0000.55,0000.23,0000.89,0001.00,0000.33,17.3,24.2,,00.0,0639.1,30.9
2021-03-11T07:41:00Z,00000200,01000000,0002.28,0001.35,0000.75,0000.17,0000.38,0000.27,0000.81,0000.87,0000.49,17.2,24.2,,00.0,0639.1,30.9
2021-03-11T07:42:00Z,00000200,01000000,0002.00,0001.35,0000.78,0000.43,0000.26,0000.17,0000.77,0000.07,0000.54,17.1,24.2,,00.0,0639.1,30.9
2021-03-11T07:43:00Z,00000200,01000000,0002.27,0001.01,0000.63,-000.03,0000.39,0000.24,0000.95,0001.16,0000.85,17.1,24.1,,00.0,0639.0,30.9
2021-03-11T07:44:00Z,00000200,01000000,0002.12,0001.21,0000.57,0000.12,0000.26,0000.10,0000.85,0000.94,0000.38,17.1,24.1,,00.0,0639.0,30.9
2021-03-11T07:45:00Z,00000200,01000000,0001.06,0001.15,0000.67,-000.19,0000.39,0000.19,0000.98,0000.69,0000.76,17.2,24.2,,00.0,0639.0,30.9
2021-03-11T07:46:00Z,00000200,01000000,0002.03,0001.10,0000.55,0000.02,0000.39,0000.22,0000.41,0000.55,0000.41,17.2,24.2,,00.0,0639.0,30.9
2021-03-11T07:47:00Z,00000200,01000000,0001.66,0001.17,0000.45,0000.11,0000.28,0000.20,0000.86,0001.08,0000.37,17.3,24.2,,00.0,0639.0,30.9
2021-03-11T07:48:00Z,00000200,01000000,0001.92,0000.74,0000.32,0000.05,0000.31,0000.21,0000.70,0000.11,0000.41,17.3,24.2,,00.0,0638.9,31.0
2021-03-11T07:49:00Z,00000200,01000000,0001.54,0001.27,0000.35,0000.60,0000.27,-000.07,0000.69,0000.76,0000.79,17.4,24.3,,00.0,0639.0,31.0
2021-03-11T07:50:00Z,00000200,01000000,0002.37,0001.34,0000.68,0000.42,0000.63,0000.25,0000.87,0000.78,0000.28,17.4,24.3,,00.0,0639.0,31.0
2021-03-11T07:51:00Z,00000200,01000000,0001.73,0000.85,0000.39,0000.48,0000.25,0000.33,0000.58,0000.60,0000.47,17.4,24.3,,00.0,0639.0,31.0
2021-03-11T07:52:00Z,00000200,01000000,0001.81,0001.12,0000.57,-000.01,0000.24,0000.17,0000.77,0000.57,0000.27,17.3,24.3,,00.0,0638.9,30.9
2021-03-11T07:53:00Z,00000200,01000000,0002.57,0001.29,0001.04,-000.11,0000.32,0000.44,0000.82,0000.59,0000.55,17.3,24.2,,00.0,0639.0,30.9
2021-03-11T07:54:00Z,00000200,01000000,0002.21,0001.39,0000.61,0000.30,0000.45,0000.14,0000.37,0000.31,0000.27,17.2,24.2,,00.0,0639.0,30.9
2021-03-11T07:55:00Z,00000200,01000000,0001.83,0000.97,0000.64,0000.05,0000.64,-000.02,0000.50,0000.88,0000.49,17.1,24.2,,00.0,0639.0,30.9
2021-03-11T07:56:00Z,00000200,01000000,0002.01,0001.30,0000.64,0000.51,0000.47,0000.08,0000.58,0000.67,0000.42,17.0,24.2,,00.0,0639.0,30.9
2021-03-11T07:57:00Z,00000200,41000000,,,,,,,-000.00,-000.39,-000.19,17.0,24.2,,00.0,0639.0,30.9
2021-03-11T07:58:00Z,00000200,61000000,,,,,,,0000.38,-000.05,0000.27,16.6,24.3,,00.0,0638.0,30.9
2021-03-11T07:59:00Z,00000200,21000000,,,,,,,-000.03,0000.18,-000.10,16.6,24.4,,00.0,0638.0,30.9
